Location: Hurecourt
(47.9030°N, 6.0653°E)
Time: 20:31:18
(UTC+00:00)

ARIANE 5 R/B - Pass Details

Date: 14 July 2020
Orbit: 749 x 794 km, 98.6° (Epoch: 14 August)

Event Time Altitude Azimuth Distance (km) Brightness Sun altitude
Rises 02:50:18 0° 12° (NNE) 3,235 6.8 -8.7°
Reaches altitude 10° 02:52:36 10° 10° (N) 2,311 5.9 -8.4°
Maximum altitude 02:57:40 70° 288° (WNW) 825 2.6 -7.8°
Drops below altitude 10° 03:02:45 10° 206° (SSW) 2,324 4.4 -7.2°
Enters shadow 03:03:30 - 205° (SSW) 2,620 4.7 -7.1°
